Binghamton, NY

5:15 PM EST on December 12, 2019 (GMT -0500)
Binghamton Regional-Link

Weather History for KBGM - May, 2019

Change the Weather History Date:

Saturday, May 4, 2019

  Actual Average Record
Temperature  
Mean Temperature 55 °F 52 °F  
Max Temperature 60 °F 62 °F 85 °F (1955)
Min Temperature 50 °F 42 °F 30 °F (1986)
Degree Days  
Heating Degree Days 10 13  
Month to date heating degree days 33 55  
Since 1 July heating degree days 6823 6854  
Cooling Degree Days 0 0  
Month to date cooling degree days 0 0  
Year to date cooling degree days 0 4  
Growing Degree Days 6 (Base 50)    
Moisture  
Dew Point 52 °F    
Average Humidity 90    
Maximum Humidity 100    
Minimum Humidity 80    
Precipitation  
Precipitation 0.04 in 0.11 in 0.92 in (1990)
Month to date precipitation 1.01 0.43  
Year to date precipitation 12.49 11.61  
Snow  
Snow 0.00 in 0.10 in T in (2005)
Month to date snowfall 0.0 0.1  
Since 1 July snowfall 81.4 83.4  
Snow Depth 0.00 in    
Sea Level Pressure  
Sea Level Pressure 29.90 in    
Wind  
Wind Speed 6 mph (North)    
Max Wind Speed 10 mph    
Max Gust Speed 13 mph    
Visibility 4 miles    
Events Fog , Rain    
T = Trace of Precipitation, MM = Missing Value Source: NWS Daily Summary

Daily Weather History Graph

Daily Weather History Graph

Search for Another Location

Airport or City:

Astronomy

May. 04, 2019 Rise Set
Actual Time 5:55 AM EDT 8:06 PM EDT
Civil Twilight 5:25 AM EDT 8:37 PM EDT
Nautical Twilight 4:47 AM EDT 9:15 PM EDT
Astronomical Twilight 4:05 AM EDT 9:57 PM EDT
Moon 6:08 AM EDT (5/4) 7:52 PM EDT (5/4)
Length of Visible Light 15h 12m
Length of Day
14h 10m
Waning Crescent, 0% of the Moon is Illuminated
May 4
Waning Crescent
May 4
New
May 11
First Quarter
May 18
Full
May 26
Last Quarter

Hourly Weather History & Observations

Time (EDT) Temp. Dew Point Humidity Pressure Visibility Wind Dir Wind Speed Gust Speed Precip Events Conditions
12:20 AM 57.0 °F 57.0 °F 100% 29.95 in 1.5 mi NNW 4.6 mph - 0.03 in Rain Light Rain
12:29 AM 57.0 °F 57.0 °F 100% 29.95 in 1.0 mi WNW 4.6 mph - 0.04 in Rain Rain
12:31 AM 57.0 °F 57.0 °F 100% 29.95 in 0.8 mi WNW 4.6 mph - 0.05 in Rain Rain
12:53 AM 57.0 °F 55.9 °F 96% 29.94 in 2.5 mi NNW 3.5 mph - 0.08 in Rain Light Rain
1:01 AM 55.9 °F 55.9 °F 100% 29.94 in 6.0 mi NW 4.6 mph - 0.01 in Rain Light Rain
1:33 AM 55.9 °F 55.9 °F 100% 29.93 in 2.5 mi NW 3.5 mph - 0.03 in Rain Light Rain
1:44 AM 55.9 °F 55.9 °F 100% 29.93 in 1.2 mi NW 4.6 mph - 0.03 in Rain Light Rain
1:46 AM 55.9 °F 55.9 °F 100% 29.93 in 0.8 mi NW 5.8 mph - 0.03 in Rain Light Rain
1:51 AM 55.4 °F 55.4 °F 100% 29.92 in 0.5 mi NNW 5.8 mph - 0.03 in Fog , Rain Light Rain
1:53 AM 55.9 °F 55.0 °F 97% 29.91 in 0.2 mi NNW 5.8 mph - 0.03 in Fog , Rain Light Rain
2:12 AM 55.0 °F 55.0 °F 100% 29.91 in 0.2 mi North 5.8 mph - 0.00 in Fog , Rain Light Rain
2:53 AM 55.0 °F 54.0 °F 96% 29.90 in 0.2 mi NNW 5.8 mph - 0.01 in Fog , Rain Light Rain
3:01 AM 54.0 °F 54.0 °F 100% 29.90 in 0.5 mi NNW 5.8 mph - 0.01 in Fog , Rain Light Rain
3:33 AM 53.1 °F 53.1 °F 100% 29.89 in 2.5 mi North 6.9 mph - 0.01 in   Overcast
3:49 AM 53.6 °F 51.8 °F 94% 29.89 in 0.8 mi NNE 5.8 mph - 0.01 in   Mist
3:53 AM 53.1 °F 52.0 °F 96% 29.89 in 1.0 mi NNE 5.8 mph - 0.01 in   Mist
3:59 AM 53.1 °F 52.0 °F 96% 29.89 in 3.0 mi NNE 5.8 mph - N/A   Overcast
4:53 AM 52.0 °F 52.0 °F 100% 29.88 in 8.0 mi NE 4.6 mph - N/A   Overcast
5:30 AM 52.0 °F 52.0 °F 100% 29.88 in 1.8 mi North 6.9 mph - N/A   Overcast
5:39 AM 52.0 °F 51.1 °F 97% 29.88 in 0.5 mi NNE 5.8 mph - N/A Fog Fog
5:51 AM 51.8 °F 51.8 °F 100% 29.89 in 1.5 mi North 4.6 mph - N/A   Overcast
5:53 AM 52.0 °F 52.0 °F 100% 29.89 in 1.8 mi North 4.6 mph - N/A   Overcast
5:58 AM 52.0 °F 52.0 °F 100% 29.89 in 3.0 mi NNW 4.6 mph - N/A   Overcast
6:09 AM 52.0 °F 52.0 °F 100% 29.90 in 0.5 mi NNW 4.6 mph - N/A   Overcast
6:28 AM 52.0 °F 51.1 °F 97% 29.90 in 0.2 mi North 6.9 mph - N/A Fog Fog
6:53 AM 51.1 °F 51.1 °F 100% 29.91 in 0.2 mi North 6.9 mph - N/A Fog Fog
7:08 AM 51.1 °F 51.1 °F 100% 29.91 in 0.5 mi NNE 8.1 mph - N/A   Overcast
7:53 AM 51.1 °F 51.1 °F 100% 29.93 in 0.5 mi North 5.8 mph - N/A   Overcast
8:53 AM 51.1 °F 51.1 °F 100% 29.92 in 0.5 mi NE 6.9 mph - N/A   Overcast
9:06 AM 51.1 °F 50.0 °F 96% 29.93 in 1.0 mi North 8.1 mph - N/A   Overcast
9:28 AM 51.1 °F 51.1 °F 100% 29.93 in 2.0 mi NNE 5.8 mph - N/A   Overcast
9:53 AM 51.1 °F 50.0 °F 96% 29.94 in 2.0 mi North 8.1 mph - N/A   Overcast
10:28 AM 51.1 °F 50.0 °F 96% 29.93 in 1.8 mi North 8.1 mph - N/A   Overcast
10:36 AM 52.0 °F 51.1 °F 97% 29.93 in 2.0 mi NNE 5.8 mph - N/A   Overcast
10:53 AM 52.0 °F 50.0 °F 93% 29.93 in 2.0 mi NNE 5.8 mph - N/A   Overcast
11:19 AM 54.0 °F 51.1 °F 90% 29.93 in 2.0 mi North 6.9 mph - N/A   Overcast
11:50 AM 53.6 °F 51.8 °F 94% 29.93 in 2.0 mi NNW 8.1 mph - N/A   Overcast
11:53 AM 53.1 °F 51.1 °F 93% 29.93 in 2.0 mi NNW 8.1 mph - N/A   Overcast
12:33 PM 54.0 °F 52.0 °F 93% 29.91 in 9.0 mi NE 3.5 mph - N/A   Overcast
12:53 PM 55.0 °F 51.1 °F 86% 29.91 in 10.0 mi Calm Calm - N/A   Overcast
1:29 PM 57.9 °F 53.1 °F 84% 29.89 in 10.0 mi North 3.5 mph - N/A   Overcast
1:53 PM 59.0 °F 53.1 °F 81% 29.88 in 10.0 mi Calm Calm - N/A   Overcast
2:53 PM 57.9 °F 53.1 °F 84% 29.88 in 10.0 mi North 5.8 mph - N/A   Overcast
3:37 PM 59.0 °F 53.1 °F 81% 29.87 in 10.0 mi NNW 4.6 mph - N/A   Overcast
3:53 PM 59.0 °F 53.1 °F 81% 29.87 in 10.0 mi NNW 3.5 mph - N/A   Overcast
4:53 PM 59.0 °F 53.1 °F 81% 29.86 in 10.0 mi WNW 5.8 mph - N/A   Overcast
5:53 PM 55.9 °F 52.0 °F 87% 29.87 in 10.0 mi NNW 6.9 mph - N/A   Overcast
6:53 PM 55.9 °F 51.1 °F 84% 29.86 in 10.0 mi North 9.2 mph - N/A   Overcast
7:53 PM 55.0 °F 51.1 °F 86% 29.87 in 10.0 mi North 8.1 mph - N/A   Overcast
8:14 PM 55.0 °F 51.1 °F 86% 29.87 in 10.0 mi NNW 8.1 mph - N/A   Overcast
8:53 PM 54.0 °F 51.1 °F 90% 29.88 in 10.0 mi North 8.1 mph - N/A   Overcast
9:53 PM 53.1 °F 48.9 °F 86% 29.88 in 10.0 mi North 6.9 mph - N/A   Overcast
10:53 PM 52.0 °F 48.9 °F 89% 29.88 in 10.0 mi North 8.1 mph - N/A   Overcast
11:02 PM 52.0 °F 48.9 °F 89% 29.88 in 10.0 mi North 5.8 mph - N/A   Overcast
11:53 PM 51.1 °F 48.0 °F 89% 29.88 in 10.0 mi North 6.9 mph - N/A   Overcast